Content
SEND FEEDBACK

Daily
Averages
Monthly
Summary
United States of America

ANN ARBOR, MICHIGAN


Home > North America > United States > Michigan
Elevation: 759 feet     Latitude: 42 17N     Longitude: 083 43W

WEATHER
 
SELECT A DAY
Number of Records: 208,144;   Date Range: 1/1/95 - 11/26/14
 
SHARE

PRINT THIS DATA

[ ← Previous Day ]
WEATHER ALMANAC - MARCH 12, 2014
[ Next Day → ]
[ °C ]   °F
Weather ElementAverageHighLow
Temperature26.4 °F37.9 °F (1:07 am)10 °F (11:53 pm)
Dewpoint21.4 °F35.1 °F (1:07 am)1 °F (9:53 pm)
Humidity81.6 %92 % (5:18 am)59 % (9:53 pm)
Barometer29.68 in30.04 in (10:53 pm)29.55 in (10:15 am)
Wind Speed16.2 mph27.6 mph (12:53 pm)
Wind Gust41.4 mph (12:53 pm)
Weather ElementAverage
Visibility3.9 mi
Wind DirectionSSE (151.6 °)

Weather ElementTotal
Precipitation0.33 in
Heating Degree Days41.1 (Base 65)
Averaged from 56 records on March 12, 2014
WEATHER CONDITIONS BREAKOUT
WIND DIRECTION BREAKOUT
WEATHER BY HOUR - MARCH 12, 2014
[ °C ]   °F
Local TimeTemperatureDewpointHumidityBarometerVisibilityWind DirectionWind SpeedGust SpeedPrecipitationEventsConditions
1:07 AM37.9 °F35.1 °F89 %29.67 in10.0 miNE (50°)9.2 mphMostly Cloudy
1:21 AM37.9 °F35.1 °F89 %29.67 in8.0 miENE (70°)12.7 mphOvercast
1:43 AM36.0 °F33.1 °F89 %29.68 in10.0 miENE (60°)13.8 mph21.9 mphOvercast
1:53 AM36.0 °F33.1 °F89 %29.69 in9.0 miENE (70°)12.7 mphOvercast
2:53 AM34.0 °F30.0 °F85 %29.68 in10.0 miENE (60°)13.8 mph21.9 mph0.00 inOvercast
3:10 AM34.0 °F30.0 °F85 %29.66 in6.0 miNE (40°)15.0 mph23.0 mph0.00 inSnowLight Snow
3:36 AM33.1 °F28.9 °F85 %29.63 in8.0 miNE (50°)15.0 mph24.2 mph0.00 inSnowLight Snow
3:46 AM32.0 °F28.9 °F88 %29.62 in5.0 miNE (40°)16.1 mph0.01 inSnowLight Snow
3:53 AM32.0 °F28.0 °F85 %29.64 in7.0 miNE (50°)17.3 mph25.3 mph0.01 inSnowLight Snow
4:06 AM32.0 °F28.0 °F85 %29.62 in10.0 miNE (50°)15.0 mph0.00 inOvercast
4:53 AM30.9 °F27.0 °F85 %29.61 in4.0 miNE (40°)17.3 mph26.5 mph0.03 inSnowLight Snow
5:03 AM30.0 °F27.0 °F88 %29.58 in4.0 miNE (40°)15.0 mph0.00 inSnowLight Snow
5:18 AM30.0 °F28.0 °F92 %29.58 in2.5 miNNE (30°)16.1 mph20.7 mph0.02 inSnowLight Snow
5:38 AM30.0 °F27.0 °F88 %29.58 in1.5 miNNE (30°)16.1 mph23.0 mph0.04 inSnowLight Snow
5:48 AM30.2 °F26.6 °F86 %29.58 in1.0 miNE (40°)16.1 mph27.6 mph0.04 inSnowLight Snow
5:53 AM30.0 °F27.0 °F88 %29.60 in0.8 miNNE (30°)11.5 mph0.05 inSnowLight Snow
6:01 AM28.9 °F27.0 °F92 %29.58 in0.8 miNNE (20°)13.8 mph0.00 inSnowLight Snow
6:23 AM28.9 °F27.0 °F92 %29.58 in0.8 miNNE (20°)10.4 mph0.01 inSnowLight Snow
6:53 AM28.9 °F27.0 °F92 %29.62 in0.5 miNorth (10°)15.0 mph0.03 inFog-SnowSnow
7:53 AM28.9 °F27.0 °F92 %29.60 in0.8 miNNE (20°)17.3 mph23.0 mph0.04 inSnowLight Snow
8:02 AM28.9 °F27.0 °F92 %29.58 in0.8 miNorth (10°)15.0 mph0.00 inSnowLight Snow
8:09 AM28.9 °F27.0 °F92 %29.57 in1.0 miNorth (10°)13.8 mph0.00 inSnowLight Snow
8:15 AM28.9 °F27.0 °F92 %29.57 in0.8 miNorth (10°)15.0 mph23.0 mph0.00 inSnowLight Snow
8:53 AM30.0 °F27.0 °F88 %29.60 in0.5 miNNE (20°)16.1 mph24.2 mph0.01 inFog-SnowSnow
9:53 AM28.9 °F27.0 °F92 %29.58 in0.5 miNNE (20°)15.0 mph29.9 mph0.00 inFog-SnowSnow
10:15 AM28.9 °F27.0 °F92 %29.55 in0.5 miNNE (20°)18.4 mph0.01 inFog-SnowSnow
10:36 AM28.9 °F26.1 °F89 %29.56 in0.5 miNNE (20°)19.6 mph32.2 mph0.01 inFog-SnowSnow
10:45 AM30.0 °F27.0 °F88 %29.55 in0.5 miNNE (20°)16.1 mph28.8 mph0.01 inFog-SnowSnow
10:53 AM28.9 °F26.1 °F89 %29.58 in0.2 miNNE (20°)20.7 mph27.6 mph0.01 inFog-SnowSnow
11:04 AM28.9 °F26.1 °F89 %29.57 in0.5 miNNE (20°)23.0 mph33.4 mph0.00 inFog-SnowSnow
11:12 AM30.0 °F26.1 °F85 %29.57 in0.5 miNorth (10°)16.1 mph26.5 mph0.00 inFog-SnowSnow
11:29 AM28.9 °F25.0 °F85 %29.58 in1.0 miNorth (10°)16.1 mph29.9 mph0.00 inSnowLight Snow
11:53 AM28.9 °F25.0 °F85 %29.60 in1.0 miNorth (10°)20.7 mph26.5 mph0.00 inSnowLight Snow
12:09 PM28.9 °F25.0 °F85 %29.59 in0.8 miNorth (360°)16.1 mph27.6 mph0.00 inSnowLight Snow
12:26 PM28.0 °F24.1 °F85 %29.60 in0.5 miNorth (350°)20.7 mph28.8 mph0.00 inFog-SnowSnow
12:31 PM27.0 °F23.0 °F85 %29.61 in0.5 miNorth (360°)21.9 mph31.1 mph0.00 inFog-SnowSnow
12:53 PM24.1 °F19.9 °F84 %29.65 in0.5 miNorth (360°)27.6 mph41.4 mph0.00 inFog-SnowLight Snow
1:45 PM21.9 °F16.0 °F78 %29.67 in1.0 miNorth (360°)24.2 mph33.4 mph0.00 inSnowLight Snow
1:53 PM21.9 °F16.0 °F78 %29.70 in1.0 miNorth (360°)24.2 mph33.4 mph0.00 inSnowLight Snow
2:27 PM19.9 °F14.0 °F78 %29.69 in0.8 miNorth (350°)20.7 mph32.2 mph0.00 inSnowLight Snow
2:36 PM19.9 °F14.0 °F78 %29.69 in1.0 miNorth (360°)18.4 mph29.9 mph0.00 inSnowLight Snow
2:53 PM21.0 °F14.0 °F74 %29.73 in1.5 miNorth (360°)24.2 mph32.2 mph0.00 inSnowLight Snow
3:32 PM21.0 °F14.0 °F74 %29.72 in2.0 miNorth (360°)23.0 mph31.1 mph0.00 inSnowLight Snow
3:43 PM21.0 °F14.0 °F74 %29.73 in1.5 miNorth (350°)15.0 mph26.5 mph0.00 inSnowLight Snow
3:53 PM21.0 °F12.9 °F71 %29.77 in1.8 miNorth (350°)18.4 mph26.5 mph0.00 inSnowLight Snow
4:00 PM19.9 °F12.9 °F74 %29.75 in2.5 miNorth (350°)18.4 mph0.00 inSnowLight Snow
4:07 PM21.0 °F12.0 °F68 %29.75 in5.0 miNorth (350°)20.7 mph26.5 mph0.00 inSnowLight Snow
4:53 PM21.0 °F10.0 °F63 %29.83 in10.0 miNNW (340°)19.6 mph29.9 mph0.00 inSnowLight Snow
5:53 PM19.9 °F8.1 °F60 %29.87 in10.0 miNorth (350°)13.8 mph25.3 mph0.00 inMostly Cloudy
6:14 PM18.0 °F7.0 °F62 %29.85 in8.0 miNorth (360°)18.4 mph31.1 mphPartly Cloudy
6:53 PM18.0 °F6.1 °F60 %29.91 in10.0 miNorth (360°)15.0 mphClear
7:53 PM16.0 °F5.0 °F62 %29.95 in10.0 miNorth (360°)8.1 mphClear
8:53 PM14.0 °F3.9 °F64 %29.99 in10.0 miNorth (360°)8.1 mphClear
9:53 PM12.9 °F1.0 °F59 %30.01 in10.0 miNNE (20°)9.2 mphClear
10:53 PM10.9 °F1.9 °F67 %30.04 in10.0 miNorth (10°)4.6 mphClear
11:53 PM10.0 °F1.0 °F67 %30.04 in10.0 miNNW (330°)4.6 mphClear
Hourly data recorded from KARB, located miles away from Ann Arbor, Michigan







STORIES FROM OUR PARTNERS